Location: Coed Ely
(51.5661°N, 3.4150°W)
Time: 23:51:38
(UTC+00:00)

Cosmos 1892 Rocket - Pass Details

Date: 28 January 2021
Orbit: 607 x 632 km, 82.5° (Epoch: 01 March)

Event Time Altitude Azimuth Distance (km) Brightness Sun altitude
Rises 17:35:53 0° 194° (SSW) 2,856 7.5 -6.4°
Reaches altitude 10° 17:38:06 10° 196° (SSW) 1,956 6.7 -6.8°
Maximum altitude 17:42:25 73° 281° (W) 641 3.8 -7.4°
Drops below altitude 10° 17:46:47 10° 7° (N) 1,973 5.9 -8.0°
Sets 17:49:01 0° 10° (N) 2,884 6.7 -8.4°
